User: anonymous   Login
Location: Fuglau
(48.6333°N, 15.5500°E)
Time: 06:04:33
(UTC+00:00)
Language:

Cosmos 1937 Rocket - Orbit

View from above orbital plane
View from above orbital plane
View from above satellite
View from above satellite

Ground track
Ground track

The orbit data is extracted from the following two-line orbital elements,

1 19039U 88029B   20152.34355498 +.00000079 +00000-0 +34330-4 0  9993
2 19039 074.0475 112.0170 0023297 014.5954 345.5868 14.38474215685731
Epoch (UTC): 31 May 2020 08:14:43
Eccentricity: 0.0023297
inclination: 74.0475°
perigee height: 747 km
apogee height: 780 km
right ascension of ascending node: 112.0170°
argument of perigee: 14.5954°
revolutions per day: 14.38474215
mean anomaly at epoch: 345.5868°
orbit number at epoch: 68573

The dashed part of the orbit path shows where the satellite is in the earth's shadow,  

DLR